Glencoe, MN

12:59 PM CST on December 06, 2019 (GMT -0600)
Glencoe Municipal

Weather History for KGYL - October, 2019

Change the Weather History Date:

Friday, October 25, 2019

  Actual Average (WUND) Record (WUND)
Temperature  
Mean Temperature 42 °F -  
Max Temperature 57 °F - - (-1)
Min Temperature 27 °F - - (-1)
Degree Days  
Heating Degree Days 23    
Moisture  
Dew Point 30 °F    
Average Humidity 69    
Maximum Humidity 94    
Minimum Humidity 33    
Precipitation  
Precipitation 0.00 in - - ()
Sea Level Pressure  
Sea Level Pressure 30.18 in    
Wind  
Wind Speed 5 mph (South)    
Max Wind Speed 15 mph    
Max Gust Speed 22 mph    
Visibility 10 miles    
Events      
Averages and records for this station are not official NWS values.
T = Trace of Precipitation, MM = Missing Value Source: NWS Daily Summary

Daily Weather History Graph

Daily Weather History Graph

Search for Another Location

Airport or City:

Astronomy

Oct. 25, 2019 Rise Set
Actual Time 7:44 AM CDT 6:15 PM CDT
Civil Twilight 7:14 AM CDT 6:45 PM CDT
Nautical Twilight 6:40 AM CDT 7:19 PM CDT
Astronomical Twilight 6:06 AM CDT 7:53 PM CDT
Moon 4:16 AM CDT (10/25) 5:27 PM CDT (10/25)
Length of Visible Light 11h 30m
Length of Day
10h 30m
Waning Crescent, 9% of the Moon is Illuminated
Oct 25
Waning Crescent
Oct 27
New
Nov 4
First Quarter
Nov 12
Full
Nov 19
Last Quarter

Hourly Weather History & Observations

Time (CDT) Temp. Windchill Dew Point Humidity Pressure Visibility Wind Dir Wind Speed Gust Speed Precip Events Conditions
12:17 AM 27.7 °F - 26.1 °F 94% 30.33 in 10.0 mi Calm Calm - N/A   Clear
12:35 AM 28.4 °F - 26.2 °F 92% 30.33 in 10.0 mi Calm Calm - N/A   Clear
12:55 AM 28.2 °F - 26.2 °F 92% 30.32 in 10.0 mi Calm Calm - N/A   Clear
12:59 AM 28.2 °F 24.4 °F 25.9 °F 91% 30.32 in 10.0 mi South 3.5 mph - N/A   Clear
1:17 AM 29.5 °F - 25.5 °F 85% 30.32 in 10.0 mi Calm Calm - N/A   Clear
1:35 AM 31.1 °F - 26.1 °F 82% 30.32 in 10.0 mi Calm Calm - N/A   Clear
1:36 AM 30.9 °F - 25.9 °F 82% 30.32 in 10.0 mi Calm Calm - N/A   Clear
1:55 AM 31.6 °F 28.3 °F 26.4 °F 81% 30.31 in 10.0 mi South 3.5 mph - N/A   Clear
1:59 AM 32.0 °F 28.7 °F 26.4 °F 80% 30.31 in 10.0 mi South 3.5 mph - N/A   Clear
2:17 AM 30.9 °F 27.5 °F 26.2 °F 83% 30.31 in 10.0 mi South 3.5 mph - N/A   Clear
2:35 AM 29.8 °F - 26.2 °F 86% 30.30 in 10.0 mi Calm Calm - N/A   Clear
2:55 AM 29.7 °F - 26.2 °F 87% 30.30 in 10.0 mi Calm Calm - N/A   Clear
2:56 AM 29.8 °F - 26.2 °F 86% 30.30 in 10.0 mi Calm Calm - N/A   Clear
3:17 AM 29.5 °F 25.9 °F 26.2 °F 88% 30.29 in 10.0 mi SSW 3.5 mph - N/A   Clear
3:35 AM 29.7 °F - 26.6 °F 88% 30.29 in 10.0 mi Calm Calm - N/A   Clear
3:55 AM 29.3 °F 25.6 °F 26.2 °F 88% 30.28 in 10.0 mi South 3.5 mph - N/A   Clear
3:59 AM 29.5 °F 25.9 °F 26.4 °F 88% 30.28 in 10.0 mi South 3.5 mph - N/A   Clear
4:16 AM 30.2 °F - 26.8 °F 87% 30.28 in 10.0 mi Calm Calm - N/A   Clear
4:35 AM 29.8 °F 26.3 °F 26.6 °F 88% 30.29 in 10.0 mi South 3.5 mph - N/A   Clear
4:36 AM 29.8 °F 26.3 °F 26.6 °F 88% 30.29 in 10.0 mi South 3.5 mph - N/A   Clear
4:58 AM 30.2 °F - 26.6 °F 86% 30.28 in 10.0 mi Calm Calm - N/A   Clear
5:16 AM 30.2 °F 25.4 °F 26.8 °F 87% 30.29 in 10.0 mi South 4.6 mph - N/A   Clear
5:35 AM 30.2 °F 24.3 °F 27.0 °F 88% 30.29 in 10.0 mi South 5.8 mph - N/A   Scattered Clouds
5:36 AM 30.2 °F 25.4 °F 27.0 °F 88% 30.29 in 10.0 mi South 4.6 mph - N/A   Scattered Clouds
5:55 AM 30.6 °F 25.8 °F 27.0 °F 86% 30.29 in 10.0 mi South 4.6 mph - N/A   Scattered Clouds
5:56 AM 30.6 °F 24.7 °F 27.1 °F 87% 30.29 in 10.0 mi South 5.8 mph - N/A   Scattered Clouds
6:18 AM 31.1 °F 26.4 °F 27.7 °F 87% 30.29 in 10.0 mi SSW 4.6 mph - N/A   Mostly Cloudy
6:36 AM 31.5 °F 26.8 °F 28.2 °F 88% 30.29 in 10.0 mi South 4.6 mph - N/A   Overcast
6:55 AM 31.5 °F 25.8 °F 28.0 °F 87% 30.28 in 10.0 mi South 5.8 mph - N/A   Mostly Cloudy
6:56 AM 31.5 °F 26.8 °F 28.0 °F 87% 30.28 in 10.0 mi South 4.6 mph - N/A   Mostly Cloudy
7:19 AM 31.3 °F 25.6 °F 27.9 °F 87% 30.28 in 10.0 mi South 5.8 mph - N/A   Mostly Cloudy
7:37 AM 30.7 °F 27.3 °F 27.5 °F 88% 30.28 in 10.0 mi South 3.5 mph - N/A   Scattered Clouds
7:55 AM 31.1 °F 27.7 °F 27.7 °F 87% 30.27 in 7.0 mi South 3.5 mph - N/A   Clear
7:56 AM 31.1 °F 27.7 °F 27.7 °F 87% 30.27 in 10.0 mi South 3.5 mph - N/A   Clear
8:15 AM 31.6 °F 27.0 °F 28.0 °F 87% 30.27 in 10.0 mi South 4.6 mph - N/A   Scattered Clouds
8:16 AM 31.8 °F 26.2 °F 28.0 °F 86% 30.27 in 10.0 mi South 5.8 mph - N/A   Scattered Clouds
8:37 AM 32.9 °F 27.5 °F 28.8 °F 85% 30.26 in 10.0 mi South 5.8 mph - N/A   Clear
8:55 AM 34.2 °F 29.0 °F 29.3 °F 82% 30.26 in 10.0 mi South 5.8 mph - N/A   Clear
9:15 AM 35.1 °F 28.6 °F 29.8 °F 81% 30.25 in 7.0 mi South 8.1 mph - N/A   Clear
9:19 AM 35.6 °F 28.6 °F 30.0 °F 80% 30.25 in 10.0 mi South 9.2 mph - N/A   Clear
9:55 AM 38.5 °F 32.1 °F 31.1 °F 75% 30.24 in 10.0 mi South 9.2 mph 16.1 mph N/A   Clear
10:15 AM 39.7 °F 34.3 °F 31.8 °F 73% 30.24 in 10.0 mi South 8.1 mph - N/A   Clear
10:39 AM - - - N/A% 30.23 in 10.0 mi South 10.4 mph 16.1 mph N/A   Clear
10:55 AM 43.0 °F 38.2 °F 32.2 °F 66% 30.22 in 10.0 mi South 8.1 mph - N/A   Clear
10:56 AM 43.0 °F 38.2 °F 32.2 °F 66% 30.22 in 10.0 mi South 8.1 mph - N/A   Clear
11:17 AM 44.6 °F 40.2 °F 32.7 °F 63% 30.22 in 10.0 mi South 8.1 mph - N/A   Clear
11:35 AM 45.9 °F 42.3 °F 32.7 °F 60% 30.21 in 10.0 mi South 6.9 mph - N/A   Clear
11:36 AM 46.0 °F 41.4 °F 32.5 °F 59% 30.21 in 10.0 mi South 9.2 mph - N/A   Clear
11:57 AM 47.8 °F - 32.4 °F 55% 30.20 in 10.0 mi South 6.9 mph - N/A   Clear
12:15 PM 49.3 °F - 32.5 °F 53% 30.19 in 10.0 mi South 10.4 mph 16.1 mph N/A   Clear
12:35 PM 51.1 °F - 32.7 °F 50% 30.18 in 10.0 mi South 12.7 mph 18.4 mph N/A   Clear
12:36 PM 51.1 °F - 32.5 °F 49% 30.18 in 10.0 mi South 10.4 mph 18.4 mph N/A   Clear
12:57 PM 51.8 °F - 32.0 °F 47% 30.17 in 10.0 mi South 13.8 mph 20.7 mph N/A   Clear
1:15 PM 52.5 °F - 32.0 °F 46% 30.15 in 10.0 mi South 15.0 mph 20.7 mph N/A   Clear
1:36 PM - - - N/A% 30.14 in 10.0 mi SSW 10.4 mph 20.7 mph N/A   Clear
1:59 PM 55.4 °F - 32.0 °F 41% 30.12 in 10.0 mi SSW 11.5 mph 18.4 mph N/A   Clear
2:08 PM - - - N/A% 30.12 in 10.0 mi South 12.7 mph 18.4 mph N/A   Clear
2:59 PM 57.2 °F - 30.2 °F 36% 30.09 in 10.0 mi South 15.0 mph 20.7 mph N/A   Clear
3:59 PM 57.2 °F - 28.4 °F 33% 30.06 in 10.0 mi SSW 15.0 mph 21.9 mph N/A   Clear
5:01 PM - - - N/A% 30.05 in 10.0 mi South 12.7 mph 18.4 mph N/A   Clear
5:15 PM 56.8 °F - 29.8 °F 36% 30.05 in 10.0 mi South 11.5 mph 17.3 mph N/A   Clear
5:35 PM 55.9 °F - 30.0 °F 37% 30.04 in 10.0 mi South 10.4 mph - N/A   Clear
5:44 PM 55.4 °F - 30.0 °F 38% 30.04 in 10.0 mi South 5.8 mph - N/A   Clear
5:55 PM 54.3 °F - 30.4 °F 40% 30.04 in 10.0 mi South 6.9 mph - N/A   Clear
6:15 PM 52.9 °F - 30.9 °F 43% 30.04 in 10.0 mi South 5.8 mph - N/A   Clear
6:35 PM 51.3 °F - 31.1 °F 46% 30.03 in 10.0 mi South 5.8 mph - N/A   Clear
6:36 PM 51.3 °F - 31.1 °F 46% 30.03 in 10.0 mi South 5.8 mph - N/A   Clear
6:58 PM 50.4 °F - 31.1 °F 48% 30.03 in 10.0 mi South 8.1 mph - N/A   Clear
7:16 PM 48.9 °F - 31.8 °F 52% 30.03 in 10.0 mi South 8.1 mph - N/A   Clear
7:35 PM 48.6 °F - 32.0 °F 53% 30.03 in 10.0 mi South 6.9 mph - N/A   Clear
7:36 PM 48.4 °F - 32.0 °F 53% 30.03 in 10.0 mi South 8.1 mph - N/A   Clear
7:55 PM 48.4 °F - 32.0 °F 53% 30.03 in 10.0 mi South 11.5 mph 16.1 mph N/A   Clear
8:16 PM 47.7 °F - 32.0 °F 55% 30.03 in 10.0 mi South 10.4 mph 16.1 mph N/A   Clear
8:35 PM 47.3 °F - 32.0 °F 55% 30.03 in 10.0 mi South 9.2 mph - N/A   Clear
8:36 PM 47.3 °F - 32.0 °F 55% 30.03 in 10.0 mi South 9.2 mph - N/A   Clear
8:59 PM 46.6 °F - 32.0 °F 57% 30.03 in 10.0 mi South 9.2 mph - N/A   Clear
9:16 PM 46.2 °F 42.2 °F 32.0 °F 58% 30.03 in 10.0 mi South 8.1 mph - N/A   Clear
9:35 PM 45.9 °F 40.8 °F 32.0 °F 58% 30.03 in 10.0 mi South 10.4 mph - N/A   Clear
9:36 PM 45.9 °F 40.8 °F 32.0 °F 58% 30.03 in 10.0 mi South 10.4 mph - N/A   Clear
9:55 PM 45.7 °F 40.6 °F 32.0 °F 59% 30.03 in 10.0 mi South 10.4 mph 16.1 mph N/A   Clear
10:00 PM 45.5 °F 40.8 °F 32.0 °F 59% 30.03 in 10.0 mi South 9.2 mph 16.1 mph N/A   Clear
10:18 PM 45.0 °F 39.7 °F 32.0 °F 60% 30.03 in 10.0 mi South 10.4 mph 16.1 mph N/A   Clear
10:36 PM 45.0 °F 39.7 °F 32.0 °F 60% 30.02 in 10.0 mi South 10.4 mph - N/A   Clear
10:55 PM 44.6 °F 39.7 °F 32.0 °F 61% 30.02 in 10.0 mi South 9.2 mph - N/A   Clear
10:56 PM 44.6 °F 39.7 °F 32.0 °F 61% 30.02 in 10.0 mi South 9.2 mph - N/A   Clear
11:19 PM 43.7 °F 39.1 °F 32.0 °F 63% 30.01 in 10.0 mi South 8.1 mph - N/A   Clear
11:35 PM 43.9 °F 38.3 °F 32.0 °F 63% 30.01 in 10.0 mi South 10.4 mph 16.1 mph N/A   Clear
11:55 PM 43.7 °F 37.7 °F 32.0 °F 63% 30.00 in 10.0 mi South 11.5 mph - N/A   Clear
11:56 PM 43.7 °F 38.6 °F 32.0 °F 63% 30.00 in 10.0 mi South 9.2 mph - N/A   Clear